{"data":{"norad_id":59711,"epoch":"2026-05-25T04:22:25.662144Z","epoch_age_seconds":60033,"freshness":"FRESH","line1":"1 59711U 24088D   26145.18224146  .00000773  00000+0  11236-4 0  9994","line2":"2 59711  53.1585 309.3822 0001068  84.6842 275.4297 15.69706896118289","mean_motion":15.69706896,"eccentricity":0.0001068,"inclination_deg":53.1585,"raan_deg":309.3822,"arg_perigee_deg":84.6842,"mean_anomaly_deg":275.4297,"bstar":1.1236e-5,"rev_number":11828,"period_min":91.736871620395,"perigee_km":359.01602809708,"apogee_km":360.45523769146,"semimajor_km":6737.8726328943,"source":"CELESTRAK","updated_at":"2026-05-25T13:38:19.045866Z"}}